ENY4101 KDCA-KCLE

Flight info

Callsign ENY4101
Flight time 0h 59m
Altitude 36000
Route HORTO4 JERES J211 JST UPPRR TRYBE4
Aircraft E75L/M-SDE3GILORVW/S

Departure

Time 2026-04-25 20:35
Airport Ronald Reagan Washington National Airport (KDCA)

Arrival

Time 2026-04-25 21:34
Airport Cleveland Hopkins International Airport (KCLE)
Time Latitude Longitude Altitude Speed Heading
2026-04-25 20:21 38.85575 -77.04170 22 ft 0 kts 334°
2026-04-25 20:26 38.85574 -77.04169 22 ft 2 kts 334°
2026-04-25 20:27 38.85551 -77.04158 26 ft 4 kts 352°
2026-04-25 20:27 38.85526 -77.04160 22 ft 4 kts 34°
2026-04-25 20:27 38.85516 -77.04176 22 ft 1 kts 71°
2026-04-25 20:27 38.85515 -77.04180 22 ft 0 kts 71°
2026-04-25 20:29 38.85518 -77.04168 22 ft 3 kts 71°
2026-04-25 20:29 38.85527 -77.04130 25 ft 6 kts 71°
2026-04-25 20:30 38.85534 -77.04102 23 ft 2 kts 72°
2026-04-25 20:30 38.85543 -77.04069 24 ft 5 kts 72°
2026-04-25 20:30 38.85571 -77.04035 22 ft 6 kts
2026-04-25 20:30 38.85623 -77.04041 22 ft 9 kts 356°
2026-04-25 20:31 38.85694 -77.04046 23 ft 11 kts 356°
2026-04-25 20:31 38.85774 -77.04053 26 ft 12 kts 356°
2026-04-25 20:31 38.85872 -77.04061 23 ft 16 kts 356°
2026-04-25 20:31 38.85946 -77.03986 24 ft 12 kts 44°
2026-04-25 20:32 38.86002 -77.03956 22 ft 3 kts 15°
2026-04-25 20:32 38.86014 -77.03953 22 ft 3 kts 15°
2026-04-25 20:32 38.86034 -77.03946 22 ft 6 kts 15°
2026-04-25 20:32 38.86088 -77.03899 21 ft 9 kts 72°
2026-04-25 20:33 38.86072 -77.03868 23 ft 7 kts 172°
2026-04-25 20:33 38.86066 -77.03868 21 ft 0 kts 176°
2026-04-25 20:33 38.86065 -77.03868 21 ft 0 kts 176°
2026-04-25 20:34 38.86064 -77.03868 21 ft 1 kts 176°
2026-04-25 20:34 38.85928 -77.03854 23 ft 56 kts 175°
2026-04-25 20:34 38.85276 -77.03789 21 ft 130 kts 175°
2026-04-25 20:34 38.84236 -77.03713 466 ft 154 kts 170°
2026-04-25 20:35 38.83226 -77.03668 926 ft 147 kts 174°
2026-04-25 20:35 38.82146 -77.03601 1200 ft 162 kts 173°
2026-04-25 20:35 38.80997 -77.03562 1636 ft 167 kts 176°
2026-04-25 20:35 38.79814 -77.03576 2074 ft 170 kts 176°
2026-04-25 20:36 38.78630 -77.03579 2547 ft 173 kts 175°
2026-04-25 20:36 38.77334 -77.03680 2982 ft 198 kts 188°
2026-04-25 20:36 38.75984 -77.04437 3474 ft 226 kts 210°
2026-04-25 20:36 38.74723 -77.05837 3936 ft 257 kts 227°
2026-04-25 20:37 38.73962 -77.08019 4794 ft 270 kts 262°
2026-04-25 20:37 38.74150 -77.10323 5936 ft 266 kts 288°
2026-04-25 20:37 38.75150 -77.12365 6812 ft 278 kts 311°
2026-04-25 20:37 38.76631 -77.14073 7736 ft 281 kts 317°
2026-04-25 20:38 38.78126 -77.15654 8628 ft 282 kts 316°
2026-04-25 20:38 38.79634 -77.17255 9493 ft 282 kts 316°
2026-04-25 20:38 38.81136 -77.18882 10156 ft 288 kts 316°
2026-04-25 20:38 38.82737 -77.20562 10514 ft 305 kts 317°
2026-04-25 20:39 38.84436 -77.22253 11099 ft 311 kts 319°
2026-04-25 20:39 38.86194 -77.23936 11795 ft 316 kts 319°
2026-04-25 20:39 38.87961 -77.25610 12595 ft 318 kts 319°
2026-04-25 20:39 38.88561 -77.26175 12868 ft 318 kts 320°
2026-04-25 20:40 38.91539 -77.28988 14185 ft 322 kts 319°
2026-04-25 20:40 38.93354 -77.30694 14904 ft 325 kts 320°
2026-04-25 20:40 38.95214 -77.32411 15667 ft 328 kts 320°
2026-04-25 20:40 38.97077 -77.34102 16410 ft 332 kts 321°
2026-04-25 20:41 38.98993 -77.35794 17141 ft 336 kts 322°
2026-04-25 20:41 39.00937 -77.37478 17882 ft 339 kts 322°
2026-04-25 20:41 39.02917 -77.39158 18567 ft 343 kts 323°
2026-04-25 20:41 39.04934 -77.40831 19236 ft 347 kts 323°
2026-04-25 20:42 39.06983 -77.42493 19965 ft 351 kts 324°
2026-04-25 20:42 39.09073 -77.44147 20685 ft 355 kts 324°
2026-04-25 20:42 39.10486 -77.45244 21159 ft 358 kts 325°
2026-04-25 20:42 39.12671 -77.46920 21842 ft 362 kts 324°
2026-04-25 20:43 39.14786 -77.48732 22462 ft 366 kts 321°
2026-04-25 20:43 39.16892 -77.50610 23081 ft 370 kts 321°
2026-04-25 20:43 39.19028 -77.52502 23667 ft 375 kts 321°
2026-04-25 20:43 39.21186 -77.54407 24185 ft 378 kts 321°
2026-04-25 20:44 39.23367 -77.56324 24708 ft 380 kts 321°
2026-04-25 20:44 39.25562 -77.58254 25243 ft 383 kts 321°
2026-04-25 20:44 39.27779 -77.60201 25712 ft 388 kts 321°
2026-04-25 20:44 39.30020 -77.62171 26213 ft 391 kts 320°
2026-04-25 20:45 39.32274 -77.64153 26730 ft 394 kts 320°
2026-04-25 20:45 39.34551 -77.66157 27227 ft 397 kts 320°
2026-04-25 20:45 39.36842 -77.68175 27719 ft 400 kts 320°
2026-04-25 20:45 39.39151 -77.70209 28256 ft 402 kts 319°
2026-04-25 20:46 39.41469 -77.72255 28756 ft 405 kts 319°
2026-04-25 20:46 39.43802 -77.74315 29237 ft 408 kts 319°
2026-04-25 20:46 39.46151 -77.76392 29722 ft 410 kts 319°
2026-04-25 20:46 39.48516 -77.78484 30163 ft 413 kts 319°
2026-04-25 20:47 39.50894 -77.80589 30548 ft 414 kts 319°
2026-04-25 20:47 39.53279 -77.82703 30917 ft 416 kts 319°
2026-04-25 20:47 39.55672 -77.84824 31281 ft 418 kts 319°
2026-04-25 20:47 39.58075 -77.86959 31628 ft 420 kts 319°
2026-04-25 20:48 39.60492 -77.89106 31973 ft 421 kts 318°
2026-04-25 20:48 39.62910 -77.91255 32394 ft 421 kts 318°
2026-04-25 20:48 39.65282 -77.93363 32916 ft 418 kts 318°
2026-04-25 20:48 39.67673 -77.95492 33371 ft 415 kts 317°
2026-04-25 20:49 39.70059 -77.97624 33675 ft 417 kts 317°
2026-04-25 20:49 39.72450 -77.99760 34057 ft 416 kts 317°
2026-04-25 20:49 39.74834 -78.01886 34489 ft 414 kts 317°
2026-04-25 20:49 39.77202 -78.04002 34934 ft 411 kts 317°
2026-04-25 20:50 39.79550 -78.06103 35395 ft 407 kts 317°
2026-04-25 20:50 39.81875 -78.08185 35847 ft 404 kts 317°
2026-04-25 20:50 39.84048 -78.10423 36216 ft 392 kts 306°
2026-04-25 20:50 39.85846 -78.13041 36632 ft 386 kts 303°
2026-04-25 20:51 39.87590 -78.15675 37053 ft 384 kts 303°
2026-04-25 20:51 39.89332 -78.18310 37420 ft 383 kts 303°
2026-04-25 20:51 39.91065 -78.20932 37823 ft 381 kts 303°
2026-04-25 20:51 39.92791 -78.23546 38018 ft 383 kts 303°
2026-04-25 20:52 39.95710 -78.27970 38010 ft 391 kts 303°
2026-04-25 20:52 39.99911 -78.34352 37977 ft 401 kts 303°
2026-04-25 20:53 40.03531 -78.39903 37923 ft 403 kts 303°
2026-04-25 20:53 40.07164 -78.45482 37918 ft 403 kts 303°
2026-04-25 20:54 40.10794 -78.51065 37911 ft 404 kts 303°
2026-04-25 20:54 40.14426 -78.56664 37912 ft 404 kts 303°
2026-04-25 20:55 40.18058 -78.62270 37905 ft 404 kts 303°
2026-04-25 20:55 40.21680 -78.67876 37925 ft 403 kts 303°
2026-04-25 20:56 40.25305 -78.73493 37920 ft 404 kts 303°
2026-04-25 20:56 40.28906 -78.79081 37882 ft 404 kts 303°
2026-04-25 20:57 40.32538 -78.84703 37884 ft 405 kts 304°
2026-04-25 20:57 40.36468 -78.90060 37877 ft 408 kts 306°
2026-04-25 20:58 40.40405 -78.95440 37886 ft 410 kts 306°
2026-04-25 20:58 40.44306 -79.00885 37875 ft 404 kts 300°
2026-04-25 20:59 40.46959 -79.07222 37903 ft 396 kts 289°
2026-04-25 20:59 40.49260 -79.13787 37889 ft 398 kts 290°
2026-04-25 21:00 40.51111 -79.18029 37886 ft 402 kts 295°
2026-04-25 21:01 40.56991 -79.29115 37897 ft 405 kts 298°
2026-04-25 21:01 40.60283 -79.35126 37883 ft 405 kts 298°
2026-04-25 21:02 40.63578 -79.41146 37896 ft 405 kts 298°
2026-04-25 21:02 40.66889 -79.47209 37912 ft 411 kts 298°
2026-04-25 21:03 40.70241 -79.53346 37905 ft 413 kts 298°
2026-04-25 21:03 40.73597 -79.59505 37913 ft 413 kts 298°
2026-04-25 21:04 40.76948 -79.65666 37913 ft 413 kts 298°
2026-04-25 21:04 40.80291 -79.71830 37912 ft 413 kts 298°
2026-04-25 21:05 40.83635 -79.78007 37926 ft 413 kts 298°
2026-04-25 21:05 40.86986 -79.84209 37922 ft 416 kts 298°
2026-04-25 21:06 40.90341 -79.90425 37672 ft 411 kts 298°
2026-04-25 21:06 40.91978 -79.93453 37436 ft 396 kts 298°
2026-04-25 21:06 40.93558 -79.96380 36963 ft 388 kts 297°
2026-04-25 21:06 40.94590 -79.98302 36592 ft 384 kts 297°
2026-04-25 21:07 40.96635 -80.02119 35918 ft 377 kts 297°
2026-04-25 21:07 40.98141 -80.04933 35448 ft 371 kts 296°
2026-04-25 21:07 40.99626 -80.07710 34928 ft 368 kts 296°
2026-04-25 21:07 41.01104 -80.10476 34472 ft 369 kts 296°
2026-04-25 21:08 41.02599 -80.13281 33961 ft 377 kts 296°
2026-04-25 21:08 41.04125 -80.16146 33455 ft 382 kts 296°
2026-04-25 21:08 41.05665 -80.19022 32943 ft 384 kts 296°
2026-04-25 21:08 41.07211 -80.21909 32459 ft 383 kts 296°
2026-04-25 21:09 41.10473 -80.27565 31440 ft 391 kts 306°
2026-04-25 21:09 41.12374 -80.30146 30881 ft 391 kts 306°
2026-04-25 21:09 41.14239 -80.32703 30390 ft 390 kts 306°
2026-04-25 21:10 41.16164 -80.35315 29858 ft 390 kts 307°
2026-04-25 21:10 41.18067 -80.37873 29346 ft 389 kts 307°
2026-04-25 21:10 41.20001 -80.40470 28804 ft 392 kts 308°
2026-04-25 21:10 41.21903 -80.43020 28316 ft 394 kts 308°
2026-04-25 21:11 41.23836 -80.45613 27770 ft 395 kts 309°
2026-04-25 21:11 41.25769 -80.48203 27260 ft 394 kts 309°
2026-04-25 21:11 41.27690 -80.50778 26742 ft 390 kts 310°
2026-04-25 21:11 41.29590 -80.53329 26235 ft 386 kts 310°
2026-04-25 21:12 41.31472 -80.55862 25722 ft 384 kts 311°
2026-04-25 21:12 41.33348 -80.58390 25214 ft 382 kts 311°
2026-04-25 21:12 41.35209 -80.60897 24715 ft 379 kts 311°
2026-04-25 21:12 41.35831 -80.61737 24547 ft 378 kts 312°
2026-04-25 21:13 41.38340 -80.65124 23845 ft 374 kts 313°
2026-04-25 21:13 41.40569 -80.68525 23173 ft 367 kts 300°
2026-04-25 21:13 41.41632 -80.71606 22736 ft 363 kts 292°
2026-04-25 21:13 41.42551 -80.74740 22221 ft 363 kts 291°
2026-04-25 21:14 41.43455 -80.77874 21750 ft 361 kts 292°
2026-04-25 21:14 41.44355 -80.80987 21276 ft 359 kts 292°
2026-04-25 21:14 41.45253 -80.84087 20798 ft 357 kts 293°
2026-04-25 21:14 41.46148 -80.87170 20333 ft 356 kts 293°
2026-04-25 21:15 41.46737 -80.89197 20019 ft 354 kts 294°
2026-04-25 21:15 41.47627 -80.92253 19549 ft 353 kts 294°
2026-04-25 21:15 41.48518 -80.95300 19092 ft 352 kts 294°
2026-04-25 21:15 41.49404 -80.98338 18628 ft 350 kts 295°
2026-04-25 21:16 41.50285 -81.01362 18146 ft 349 kts 295°
2026-04-25 21:16 41.51143 -81.04373 17704 ft 347 kts 292°
2026-04-25 21:16 41.51523 -81.07581 17245 ft 355 kts 275°
2026-04-25 21:16 41.51444 -81.10889 16759 ft 358 kts 271°
2026-04-25 21:17 41.51288 -81.14191 16273 ft 356 kts 271°
2026-04-25 21:17 41.51135 -81.17479 15807 ft 355 kts 272°
2026-04-25 21:17 41.50993 -81.20761 15345 ft 354 kts 272°
2026-04-25 21:17 41.50859 -81.24038 14877 ft 353 kts 272°
2026-04-25 21:18 41.50728 -81.27276 14403 ft 346 kts 273°
2026-04-25 21:18 41.50518 -81.30486 13906 ft 343 kts 266°
2026-04-25 21:18 41.50046 -81.33538 13469 ft 337 kts 262°
2026-04-25 21:18 41.49531 -81.36609 13029 ft 330 kts 263°
2026-04-25 21:19 41.49071 -81.39538 12598 ft 324 kts 263°
2026-04-25 21:19 41.48631 -81.42469 12177 ft 319 kts 264°
2026-04-25 21:19 41.48209 -81.45346 11755 ft 315 kts 264°
2026-04-25 21:19 41.47796 -81.48190 11359 ft 310 kts 264°
2026-04-25 21:20 41.47389 -81.51006 10963 ft 308 kts 263°
2026-04-25 21:20 41.47111 -81.52924 10682 ft 307 kts 263°
2026-04-25 21:20 41.46580 -81.56581 10164 ft 304 kts 263°
2026-04-25 21:20 41.46052 -81.59312 9783 ft 308 kts 248°
2026-04-25 21:21 41.44871 -81.61698 9473 ft 308 kts 231°
2026-04-25 21:21 41.43421 -81.63792 9108 ft 308 kts 229°
2026-04-25 21:21 41.41977 -81.65890 8769 ft 305 kts 230°
2026-04-25 21:21 41.40581 -81.67985 8456 ft 301 kts 231°
2026-04-25 21:22 41.39213 -81.70088 8110 ft 299 kts 231°
2026-04-25 21:22 41.37870 -81.72175 7783 ft 294 kts 232°
2026-04-25 21:22 41.36555 -81.74221 7465 ft 288 kts 232°
2026-04-25 21:22 41.35268 -81.76228 7107 ft 284 kts 232°
2026-04-25 21:23 41.34078 -81.78316 6611 ft 282 kts 245°
2026-04-25 21:23 41.33633 -81.80809 6101 ft 274 kts 271°
2026-04-25 21:23 41.33563 -81.83313 5653 ft 272 kts 271°
2026-04-25 21:23 41.33469 -81.85862 5038 ft 278 kts 271°
2026-04-25 21:24 41.33367 -81.88428 4397 ft 272 kts 271°
2026-04-25 21:24 41.33269 -81.90887 3770 ft 261 kts 270°
2026-04-25 21:24 41.33177 -81.93251 3180 ft 251 kts 271°
2026-04-25 21:24 41.33330 -81.95442 2770 ft 229 kts 294°
2026-04-25 21:25 41.34263 -81.96986 2341 ft 208 kts 338°
2026-04-25 21:25 41.35611 -81.96975 2044 ft 200 kts 28°
2026-04-25 21:25 41.36351 -81.95563 1770 ft 201 kts 77°
2026-04-25 21:25 41.35870 -81.93809 1452 ft 203 kts 135°
2026-04-25 21:26 41.34557 -81.93292 1347 ft 192 kts 176°
2026-04-25 21:26 41.33274 -81.93216 2329 ft 185 kts 175°
2026-04-25 21:26 41.31952 -81.93096 2383 ft 197 kts 174°
2026-04-25 21:26 41.30687 -81.93523 2246 ft 188 kts 217°
2026-04-25 21:27 41.29736 -81.94692 2198 ft 170 kts 238°
2026-04-25 21:27 41.29456 -81.96079 1929 ft 161 kts 286°
2026-04-25 21:27 41.30074 -81.97177 1975 ft 146 kts 343°
2026-04-25 21:27 41.31051 -81.97313 2719 ft 136 kts 355°
2026-04-25 21:28 41.31940 -81.97544 3193 ft 133 kts 352°
2026-04-25 21:28 41.32857 -81.97770 3151 ft 132 kts 352°
2026-04-25 21:28 41.33734 -81.98004 3025 ft 127 kts 352°
2026-04-25 21:28 41.34604 -81.98237 2818 ft 125 kts 352°
2026-04-25 21:29 41.35470 -81.98462 2770 ft 126 kts 352°
2026-04-25 21:29 41.36316 -81.98805 2575 ft 133 kts 332°
2026-04-25 21:29 41.36839 -81.99938 2137 ft 162 kts 279°
2026-04-25 21:29 41.36489 -82.01321 2040 ft 164 kts 227°
2026-04-25 21:30 41.35308 -82.01911 1873 ft 171 kts 164°
2026-04-25 21:30 41.34547 -82.01216 2460 ft 143 kts 108°
2026-04-25 21:30 41.34140 -81.99871 2540 ft 167 kts 105°
2026-04-25 21:30 41.33859 -81.98892 2552 ft 169 kts 105°
2026-04-25 21:31 41.33566 -81.96878 2088 ft 171 kts 63°
2026-04-25 21:31 41.34218 -81.95668 1930 ft 161 kts 41°
2026-04-25 21:31 41.35003 -81.94665 2034 ft 156 kts 43°
2026-04-25 21:31 41.35743 -81.93682 1810 ft 142 kts 43°
2026-04-25 21:32 41.36430 -81.92826 1599 ft 133 kts 38°
2026-04-25 21:32 41.37084 -81.92024 1481 ft 129 kts 52°
2026-04-25 21:32 41.37599 -81.91106 1694 ft 122 kts 47°
2026-04-25 21:32 41.38205 -81.90202 1548 ft 132 kts 46°
2026-04-25 21:33 41.38772 -81.89250 1280 ft 127 kts 49°
2026-04-25 21:33 41.39348 -81.88353 1040 ft 128 kts 47°
2026-04-25 21:33 41.39937 -81.87422 811 ft 132 kts 46°
2026-04-25 21:33 41.40501 -81.86542 759 ft 111 kts 50°
2026-04-25 21:34 41.40899 -81.85907 760 ft 66 kts 50°
2026-04-25 21:34 41.41078 -81.85582 759 ft 28 kts 75°
2026-04-25 21:34 41.41098 -81.85373 759 ft 20 kts 59°
2026-04-25 21:34 41.41187 -81.85229 760 ft 21 kts 48°
2026-04-25 21:35 41.41291 -81.85074 760 ft 22 kts 53°
2026-04-25 21:35 41.41388 -81.84913 760 ft 20 kts 48°
2026-04-25 21:35 41.41466 -81.84768 759 ft 18 kts 93°
2026-04-25 21:35 41.41383 -81.84634 759 ft 21 kts 127°
2026-04-25 21:36 41.41337 -81.84500 759 ft 10 kts 122°
2026-04-25 21:36 41.41295 -81.84411 759 ft 13 kts 122°
2026-04-25 21:36 41.41258 -81.84322 759 ft 6 kts 86°
2026-04-25 21:36 41.41280 -81.84264 759 ft 8 kts 51°
2026-04-25 21:37 41.41324 -81.84196 759 ft 11 kts 49°
2026-04-25 21:37 41.41356 -81.84135 759 ft 11 kts 79°
2026-04-25 21:37 41.41333 -81.83989 759 ft 12 kts 104°
2026-04-25 21:37 41.41323 -81.83926 759 ft 6 kts 102°
2026-04-25 21:38 41.41319 -81.83901 759 ft 1 kts 102°
2026-04-25 21:38 41.41319 -81.83898 759 ft 0 kts 102°